sat.trackr.live / text

‹ back to catalog

CYBERCUBE

NORAD 69938 · 2026-156BX

PAYLOAD ACTIVE UNKNOWN

§ Identity

Operator
Country
ESA
Launch date
2026-07-07
Launch site
AFWTR
Launch vehicle
Mass (kg)
RCS (m²)

External: N2YO · Heavens-Above · Gunter

§ Orbital elements

Epoch: 2026-09-20T03:45:26.108352Z

Period
96.46 min
Inclination
97.7412°
Eccentricity
0.0008089
Mean motion
14.92779732 rev/d
Perigee alt
583.6 km
Apogee alt
594.9 km
Semi-major
6,967.4 km
B*
1.7327e-4
RAAN
162.4163°
Arg perigee
264.3446°
Mean anomaly
95.6851°
Rev number
1,116

§ Raw data

CYBERCUBE1 69938U 26156BX  26263.15655218  .00001735  00000+0  17327-3 0  99952 69938  97.7412 162.4163 0008089 264.3446  95.6851 14.92779732 11168

JSON: /api/v1/satellites/69938 · /tle

For live sub-satellite position, see the globe view (requires WebGL).

§ Visibility from observer

Set your observer location to see the next 7 days of passes ≥ 10°. The values pass through the URL so the page stays shareable.

No JS? Fill the form by hand. The geolocation button needs JavaScript.